When you browse on this site, cookies collect data to enhance your experience and personalize the content and advertising you see.
Visit our Privacy Policy to learn more. By continuing to use the site, you agree to this use of cookies and data.
  • In Schweiz
  • Länderverzeichnis
  • Für 7 Tage
  • Wassertemperatur
  • Wetterkarte
  • Widgets
  • user-avatar
    Anmelden

    Stündliche Wetter Zaborovka

    Heute, 29 Mai, Freitag

    Zeit Temperatur Niederschläge Wind Luftdruck Luftfeuchtigkeit
    00:00 +13°C° 0 mm 4 m/S 747 mmHg 89%
    01:00 +13°C° 0 mm 4 m/S 747 mmHg 90%
    02:00 +13°C° 0 mm 5 m/S 747 mmHg 91%
    03:00 +14°C° 0 mm 4 m/S 746 mmHg 88%
    04:00 +14°C° 0.3 mm 4 m/S 745 mmHg 91%
    05:00 +15°C° 0.3 mm 5 m/S 745 mmHg 93%
    06:00 +15°C° 0.3 mm 5 m/S 745 mmHg 95%
    07:00 +16°C° 0.4 mm 5 m/S 745 mmHg 93%
    08:00 +17°C° 0.4 mm 5 m/S 745 mmHg 92%
    09:00 +17°C° 0 mm 5 m/S 745 mmHg 90%
    10:00 +19°C° 0.1 mm 5 m/S 745 mmHg 87%
    11:00 +20°C° 0.1 mm 5 m/S 744 mmHg 84%
    12:00 +21°C° 0.1 mm 6 m/S 744 mmHg 82%
    13:00 +22°C° 0.4 mm 6 m/S 744 mmHg 79%
    14:00 +23°C° 0.4 mm 6 m/S 744 mmHg 75%
    15:00 +26°C° 0 mm 5 m/S 744 mmHg 71%
    16:00 +25°C° 0.7 mm 5 m/S 743 mmHg 74%
    17:00 +23°C° 0.7 mm 5 m/S 743 mmHg 78%
    18:00 +22°C° 0.7 mm 5 m/S 742 mmHg 82%
    19:00 +21°C° 0.4 mm 4 m/S 742 mmHg 84%
    20:00 +20°C° 0.4 mm 4 m/S 742 mmHg 87%
    21:00 +19°C° 0.4 mm 3 m/S 742 mmHg 90%
    22:00 +19°C° 0.6 mm 3 m/S 742 mmHg 91%
    23:00 +18°C° 0.6 mm 3 m/S 742 mmHg 92%

    Morgen, 30 Mai, Samstag

    Zeit Temperatur Niederschläge Wind Luftdruck Luftfeuchtigkeit
    00:00 +18°C° 0.6 mm 3 m/S 741 mmHg 93%
    01:00 +17°C° 0 mm 3 m/S 741 mmHg 94%
    02:00 +17°C° 0 mm 3 m/S 741 mmHg 94%
    03:00 +16°C° 0 mm 3 m/S 741 mmHg 95%
    04:00 +15°C° 0 mm 4 m/S 740 mmHg 94%
    05:00 +17°C° 0 mm 4 m/S 740 mmHg 94%
    06:00 +17°C° 0 mm 4 m/S 740 mmHg 93%
    07:00 +18°C° 0 mm 4 m/S 739 mmHg 90%
    08:00 +19°C° 0 mm 5 m/S 739 mmHg 87%
    09:00 +20°C° 0 mm 5 m/S 739 mmHg 83%
    10:00 +21°C° 0 mm 6 m/S 739 mmHg 80%
    11:00 +22°C° 0 mm 6 m/S 738 mmHg 77%
    12:00 +23°C° 0 mm 7 m/S 738 mmHg 73%
    13:00 +22°C° 0.2 mm 6 m/S 738 mmHg 78%
    14:00 +20°C° 0.2 mm 6 m/S 738 mmHg 83%
    15:00 +19°C° 0.2 mm 5 m/S 738 mmHg 87%
    16:00 +19°C° 0.3 mm 5 m/S 737 mmHg 88%
    17:00 +18°C° 0.3 mm 4 m/S 737 mmHg 88%
    18:00 +18°C° 0.3 mm 4 m/S 737 mmHg 88%
    19:00 +17°C° 0 mm 3 m/S 737 mmHg 90%
    20:00 +16°C° 0 mm 3 m/S 738 mmHg 92%
    21:00 +15°C° 0 mm 2 m/S 738 mmHg 95%
    22:00 +15°C° 0 mm 2 m/S 738 mmHg 95%
    23:00 +14°C° 0 mm 2 m/S 738 mmHg 95%

    übermorgen, 31 Mai, Sonntag

    Zeit Temperatur Niederschläge Wind Luftdruck Luftfeuchtigkeit
    00:00 +14°C° 0 mm 2 m/S 738 mmHg 95%
    01:00 +13°C° 0 mm 2 m/S 738 mmHg 95%
    02:00 +13°C° 0 mm 2 m/S 738 mmHg 95%
    03:00 +12°C° 0 mm 2 m/S 738 mmHg 95%
    04:00 +13°C° 0 mm 2 m/S 737 mmHg 95%
    05:00 +12°C° 0 mm 3 m/S 737 mmHg 95%
    06:00 +12°C° 0 mm 3 m/S 737 mmHg 94%
    07:00 +14°C° 0.1 mm 3 m/S 737 mmHg 92%
    08:00 +15°C° 0.1 mm 4 m/S 737 mmHg 89%
    09:00 +17°C° 0.1 mm 4 m/S 737 mmHg 86%
    10:00 +16°C° 0.5 mm 5 m/S 737 mmHg 86%
    11:00 +15°C° 0.5 mm 5 m/S 737 mmHg 86%
    12:00 +15°C° 0.5 mm 6 m/S 738 mmHg 86%
    13:00 +16°C° 0.3 mm 6 m/S 737 mmHg 84%
    14:00 +16°C° 0.3 mm 6 m/S 737 mmHg 81%
    15:00 +17°C° 0.3 mm 6 m/S 737 mmHg 79%
    16:00 +16°C° 1.2 mm 6 m/S 737 mmHg 82%
    17:00 +15°C° 1.2 mm 5 m/S 738 mmHg 85%
    18:00 +14°C° 1.2 mm 5 m/S 738 mmHg 89%
    19:00 +13°C° 0.5 mm 5 m/S 738 mmHg 90%
    20:00 +12°C° 0.5 mm 5 m/S 738 mmHg 92%
    21:00 +10°C° 0.5 mm 5 m/S 738 mmHg 94%
    22:00 +9°C° 0.1 mm 5 m/S 738 mmHg 94%
    23:00 +9°C° 0.1 mm 5 m/S 738 mmHg 94%

    1 Juni, Montag

    Zeit Temperatur Niederschläge Wind Luftdruck Luftfeuchtigkeit
    00:00 +10°C° 0.1 mm 4 m/S 738 mmHg 94%
    01:00 +8°C° 1 mm 5 m/S 738 mmHg 94%
    02:00 +8°C° 1 mm 5 m/S 738 mmHg 95%
    03:00 +8°C° 1 mm 6 m/S 738 mmHg 95%
    04:00 +8°C° 0.9 mm 5 m/S 738 mmHg 95%
    05:00 +8°C° 0.9 mm 5 m/S 738 mmHg 95%
    06:00 +8°C° 0.9 mm 5 m/S 738 mmHg 95%
    07:00 +8°C° 0.9 mm 5 m/S 738 mmHg 95%
    08:00 +8°C° 0.9 mm 5 m/S 739 mmHg 95%
    09:00 +8°C° 0.9 mm 5 m/S 739 mmHg 95%
    10:00 +8°C° 0.7 mm 5 m/S 739 mmHg 95%
    11:00 +8°C° 0.7 mm 5 m/S 739 mmHg 94%
    12:00 +8°C° 0.7 mm 5 m/S 740 mmHg 94%
    13:00 +8°C° 0.2 mm 5 m/S 740 mmHg 94%
    14:00 +8°C° 0.2 mm 5 m/S 740 mmHg 93%
    15:00 +9°C° 0.2 mm 5 m/S 740 mmHg 92%
    16:00 +9°C° 0.1 mm 5 m/S 740 mmHg 93%
    17:00 +10°C° 0.1 mm 4 m/S 740 mmHg 93%
    18:00 +10°C° 0.1 mm 4 m/S 740 mmHg 93%
    19:00 +10°C° 0 mm 4 m/S 741 mmHg 94%
    20:00 +8°C° 0 mm 5 m/S 741 mmHg 94%
    21:00 +8°C° 0 mm 5 m/S 741 mmHg 95%
    22:00 +8°C° 0.1 mm 5 m/S 741 mmHg 95%
    23:00 +8°C° 0.1 mm 5 m/S 741 mmHg 95%

    2 Juni, Dienstag

    Zeit Temperatur Niederschläge Wind Luftdruck Luftfeuchtigkeit
    00:00 +8°C° 0.1 mm 5 m/S 741 mmHg 96%
    01:00 +8°C° 0.2 mm 5 m/S 741 mmHg 96%
    02:00 +8°C° 0.2 mm 5 m/S 741 mmHg 96%
    03:00 +8°C° 0.2 mm 4 m/S 741 mmHg 96%
    04:00 +9°C° 0 mm 5 m/S 741 mmHg 96%
    05:00 +9°C° 0 mm 5 m/S 741 mmHg 96%
    06:00 +9°C° 0 mm 5 m/S 741 mmHg 96%
    07:00 +9°C° 0.1 mm 5 m/S 741 mmHg 96%
    08:00 +9°C° 0.1 mm 5 m/S 741 mmHg 95%
    09:00 +9°C° 0.1 mm 5 m/S 741 mmHg 95%
    10:00 +9°C° 0.3 mm 5 m/S 741 mmHg 95%
    11:00 +10°C° 0.3 mm 5 m/S 742 mmHg 94%
    12:00 +10°C° 0.3 mm 5 m/S 742 mmHg 94%
    13:00 +10°C° 0.2 mm 5 m/S 742 mmHg 94%
    14:00 +12°C° 0.2 mm 4 m/S 742 mmHg 93%
    15:00 +12°C° 0.2 mm 4 m/S 742 mmHg 93%
    16:00 +12°C° 0 mm 4 m/S 742 mmHg 93%
    17:00 +13°C° 0 mm 4 m/S 742 mmHg 92%
    18:00 +13°C° 0 mm 4 m/S 742 mmHg 92%
    19:00 +13°C° 0 mm 4 m/S 742 mmHg 93%
    20:00 +13°C° 0 mm 4 m/S 742 mmHg 94%
    21:00 +12°C° 0 mm 4 m/S 741 mmHg 95%
    22:00 +11°C° 0 mm 4 m/S 741 mmHg 96%
    23:00 +11°C° 0 mm 3 m/S 741 mmHg 97%

    3 Juni, Mittwoch

    Zeit Temperatur Niederschläge Wind Luftdruck Luftfeuchtigkeit
    00:00 +10°C° 0 mm 3 m/S 741 mmHg 98%
    01:00 +10°C° 0 mm 3 m/S 741 mmHg 98%
    02:00 +11°C° 0 mm 3 m/S 741 mmHg 98%
    03:00 +11°C° 0 mm 3 m/S 741 mmHg 98%
    04:00 +12°C° 0 mm 3 m/S 741 mmHg 97%
    05:00 +12°C° 0 mm 3 m/S 741 mmHg 97%
    06:00 +12°C° 0 mm 3 m/S 741 mmHg 96%
    07:00 +13°C° 0 mm 3 m/S 741 mmHg 94%
    08:00 +14°C° 0 mm 3 m/S 741 mmHg 91%
    09:00 +16°C° 0 mm 3 m/S 741 mmHg 89%
    10:00 +16°C° 0 mm 3 m/S 741 mmHg 86%
    11:00 +17°C° 0 mm 3 m/S 741 mmHg 83%
    12:00 +18°C° 0 mm 3 m/S 741 mmHg 80%
    13:00 +19°C° 0 mm 3 m/S 741 mmHg 79%
    14:00 +19°C° 0 mm 3 m/S 741 mmHg 78%
    15:00 +19°C° 0 mm 3 m/S 741 mmHg 77%
    16:00 +19°C° 0.7 mm 3 m/S 741 mmHg 79%
    17:00 +19°C° 0.7 mm 3 m/S 741 mmHg 81%
    18:00 +19°C° 0.7 mm 3 m/S 741 mmHg 83%
    19:00 +18°C° 0.3 mm 3 m/S 741 mmHg 85%
    20:00 +17°C° 0.3 mm 3 m/S 741 mmHg 87%
    21:00 +16°C° 0.3 mm 3 m/S 741 mmHg 89%
    22:00 +14°C° 0.1 mm 3 m/S 741 mmHg 90%
    23:00 +14°C° 0.1 mm 3 m/S 741 mmHg 92%
    Mehr zeigen